User: anonymous   Login
Location: Fort Wayne
(41.1310°N, 85.1290°W)
Time: 05:46:48
(UTC-04:00)
Language:

OPAL - Orbit

View from above orbital plane
View from above orbital plane
View from above satellite
View from above satellite

Ground track
Ground track

The orbit data is extracted from the following two-line orbital elements,

1 26063U 00004C   15209.51623893  .00000020  00000-0  26679-4 0  9991
2 26063 100.2119 075.8058 0037279 093.1724 267.3723 14.36552973812365
Epoch (UTC): 28 July 2015 12:23:23
Eccentricity: 0.0037279
inclination: 100.2119°
perigee height: 743 km
apogee height: 796 km
right ascension of ascending node: 75.8058°
argument of perigee: 93.1724°
revolutions per day: 14.36552973
mean anomaly at epoch: 267.3723°
orbit number at epoch: 81236

The dashed part of the orbit path shows where the satellite is in the earth's shadow,  

DLR